Simultaneous Nadir Overpasses (SNOs) Predictions

Prediction of SNOs between GOES-16 and TERRA Satellite Orbit:

Table of predicted SNOs for the next 14.0 days since TLE Epoch: 6/6/2020
Index Date Time (GOES-16) GOES-16 Lat,Lon TERRA Lat,Lon Distance(km) Time Diff (sec)
1 06/07/2020 03:27:01 -0.02, -75.15 0.10, -74.53 70.14 80
2 06/09/2020 03:14:51 -0.02, -75.15 0.76, -71.58 406.02 80
3 06/09/2020 15:36:07 0.02, -75.17 0.32, -76.74 178.22 80
4 06/11/2020 15:26:37 0.01, -75.18 -0.30, -73.79 158.54 80
5 06/12/2020 03:48:01 -0.01, -75.16 -0.85, -78.97 433.51 80
6 06/13/2020 15:14:27 0.01, -75.20 -0.90, -70.83 495.84 80
7 06/14/2020 03:35:52 -0.01, -75.18 -0.20, -76.03 96.09 80
8 06/16/2020 03:21:03 -0.01, -75.21 0.43, -73.08 241.68 80
9 06/16/2020 15:42:19 0.01, -75.23 0.62, -78.25 342.43 80
10 06/18/2020 15:30:11 0.00, -75.26 0.04, -75.29 5.48 80




NCC Satellite Simultaneous Nadir Overpasses (SNOs) Prediction Service
